DW8016 Weather Reports


time (UTC)temp
C
wind
direction
speed
KPH
gust
KPH
rain 1hr
cm
rain 24hr
cm
rain mn
cm
humidity
%
barometer
mb
20260503002112 12 286 0.0 0.0 0.00 0.00 0.00 48 1011.6
20260503001123 13 286 0.0 0.0 0.00 0.00 0.00 46 1011.4
20260503000136 13 347 0.0 6.4 0.00 0.00 0.00 45 1011.2
20260502235103 13 346 0.0 3.2 0.00 0.00 0.00 45 1011.1
20260502234044 13 346 0.0 4.8 0.00 0.00 0.00 45 1011.0
20260502233050 13 346 0.0 4.8 0.00 0.00 0.00 44 1011.0
20260502232045 13 346 0.0 6.4 0.00 0.00 0.00 45 1010.8
20260502231043 13 5 0.0 4.8 0.00 0.00 0.00 44 1011.0
20260502230050 13 344 0.0 4.8 0.00 0.00 0.00 42 1010.9
20260502225111 14 344 0.0 6.4 0.00 0.00 0.00 44 1010.9
20260502224122 14 344 0.0 4.8 0.00 0.00 0.00 43 1010.8
20260502223121 14 336 0.0 0.0 0.00 0.00 0.00 43 1010.7
20260502220944 15 317 0.0 4.8 0.00 0.00 0.00 41 1010.9
20260502215913 15 317 0.0 6.4 0.00 0.00 0.00 41 1010.9
20260502214907 15 355 0.0 8.0 0.00 0.00 0.00 40 1010.9
20260502213835 15 336 1.6 11.3 0.00 0.00 0.00 39 1010.7
20260502212855 16 292 1.6 14.5 0.00 0.00 0.00 38 1010.7
20260502211833 16 5 3.2 14.5 0.00 0.00 0.00 37 1010.6
20260502210806 16 290 1.6 12.9 0.00 0.00 0.00 34 1010.6
20260502205801 16 337 1.6 12.9 0.00 0.00 0.00 34 1010.5
20260502204815 16 348 1.6 9.7 0.00 0.00 0.00 35 1010.5
20260502203805 16 312 0.0 6.4 0.00 0.00 0.00 35 1010.5
20260502202739 17 325 1.6 11.3 0.00 0.00 0.00 35 1010.5
20260502201756 17 281 1.6 11.3 0.00 0.00 0.00 33 1010.4
20260502200803 17 335 1.6 9.7 0.00 0.00 0.00 33 1010.3
20260502195820 17 306 1.6 9.7 0.00 0.00 0.00 34 1010.4
20260502193712 18 300 1.6 9.7 0.00 0.00 0.00 35 1010.8
20260502192705 18 268 3.2 8.0 0.00 0.00 0.00 32 1010.9
20260502191701 18 281 3.2 9.7 0.00 0.00 0.00 33 1011.1
20260502190656 17 294 4.8 11.3 0.00 0.00 0.00 34 1011.3
20260502185658 17 306 3.2 11.3 0.00 0.00 0.00 36 1011.5
20260502184711 17 19 1.6 9.7 0.00 0.00 0.00 37 1011.6
20260502183700 17 295 1.6 8.0 0.00 0.00 0.00 39 1011.9
20260502182648 15 292 0.0 4.8 0.00 0.00 0.00 38 1012.1
20260502181710 15 294 0.0 6.4 0.00 0.00 0.00 38 1012.2
20260502180728 16 219 0.0 6.4 0.00 0.00 0.00 41 1012.3
20260502170517 15 355 1.6 8.0 0.00 0.00 0.00 41 1012.7
20260502163526 14 304 0.0 8.0 0.00 0.00 0.00 43 1013.1
20260502162510 14 288 0.0 4.8 0.00 0.00 0.00 45 1013.2
20260502161458 14 296 1.6 8.0 0.00 0.00 0.00 44 1013.1
20260502160449 14 329 0.0 8.0 0.00 0.00 0.00 46 1013.2
20260502152330 13 59 0.0 8.0 0.00 0.00 0.00 51 1013.4
20260502151322 12 15 1.6 8.0 0.00 0.00 0.00 49 1013.6
20260502150334 12 44 1.6 9.7 0.00 0.00 0.00 51 1013.6
20260502121747 10 22 0.0 9.7 0.00 0.00 0.00 63 1013.4
20260502120803 10 334 1.6 9.7 0.00 0.00 0.00 64 1013.5
20260502115803 9 331 1.6 9.7 0.00 0.00 0.00 66 1013.4
20260502114745 9 355 3.2 9.7 0.00 0.00 0.00 66 1013.1
20260502113807 9 342 3.2 8.0 0.00 0.00 0.00 66 1013.2
20260502112750 9 337 3.2 9.7 0.00 0.00 0.00 65 1013.3
20260502111737 9 346 1.6 9.7 0.00 0.00 0.00 65 1013.3
20260502105554 10 329 1.6 9.7 0.00 0.00 0.00 65 1013.0
20260502104528 10 327 1.6 9.7 0.00 0.00 0.00 65 1012.8
20260502102423 10 320 1.6 6.4 0.00 0.00 0.00 64 1012.6
20260502101440 10 295 0.0 4.8 0.00 0.00 0.00 64 1012.6
20260502100425 10 300 1.6 8.0 0.00 0.00 0.00 63 1012.5
20260502091251 11 344 0.0 6.4 0.00 0.00 0.00 64 1011.8
20260502090301 11 348 0.0 4.8 0.00 0.00 0.00 64 1011.6
20260502071054 12 287 0.0 0.0 0.00 0.00 0.00 72 1011.6
20260502070047 12 287 0.0 1.6 0.00 0.00 0.00 72 1011.5
20260502065046 12 287 0.0 1.6 0.00 0.00 0.00 72 1011.3
20260502064026 12 287 0.0 1.6 0.00 0.00 0.00 71 1011.3
20260502061916 12 287 0.0 4.8 0.00 0.00 0.00 70 1011.5
20260502060852 13 261 0.0 6.4 0.00 0.00 0.00 70 1011.8
20260502055822 13 296 0.0 4.8 0.00 0.00 0.00 72 1011.9
20260502054816 13 290 0.0 1.6 0.00 0.00 0.00 72 1012.0
20260502053745 13 290 0.0 1.6 0.00 0.00 0.00 72 1011.9
20260502052713 13 290 0.0 0.0 0.00 0.00 0.00 74 1011.9
20260502051728 13 290 0.0 0.0 0.00 0.00 0.00 74 1012.0
20260502050706 13 290 0.0 0.0 0.00 0.00 0.00 75 1011.9
20260502045708 13 290 0.0 0.0 0.00 0.00 0.00 74 1011.9
20260502044649 13 290 0.0 0.0 0.00 0.00 0.00 75 1012.0
20260502042609 13 290 0.0 4.8 0.00 0.00 0.00 74 1012.0
20260502041538 13 294 0.0 0.0 0.00 0.00 0.00 75 1011.8
20260502040600 13 284 0.0 1.6 0.00 0.00 0.00 75 1011.6
20260502035600 13 284 0.0 0.0 0.00 0.00 0.00 71 1011.4
20260502034526 14 284 0.0 0.0 0.00 0.00 0.00 69 1011.4
20260502033515 15 284 0.0 12.9 0.00 0.00 0.00 67 1011.5
20260502032526 15 284 1.6 9.7 0.00 0.00 0.00 61 1011.1
20260502031540 15 201 0.0 4.8 0.00 0.00 0.00 61 1010.8
20260502030512 15 174 3.2 12.9 0.00 0.00 0.00 60 1010.6
20260502025445 15 158 3.2 11.3 0.00 0.00 0.00 59 1010.4
20260502024447 15 156 1.6 9.7 0.00 0.00 0.00 59 1010.4
20260502023414 15 123 1.6 9.7 0.00 0.00 0.00 57 1010.4
20260502022415 15 155 1.6 9.7 0.00 0.00 0.00 55 1010.4
20260502021427 15 181 1.6 8.0 0.00 0.00 0.00 53 1010.5
20260502020414 16 188 0.0 8.0 0.00 0.00 0.00 52 1010.6
20260502015358 16 148 0.0 6.4 0.00 0.00 0.00 51 1010.4
20260502014403 16 135 1.6 1.6 0.00 0.00 0.00 50 1010.5
20260502004841 17 193 3.2 11.3 0.00 0.00 0.00 43 1009.4
20260502003832 17 181 4.8 11.3 0.00 0.00 0.00 43 1009.2
20260502002838 17 162 3.2 17.7 0.00 0.00 0.00 43 1009.2